| time (UTC) | temp C | wind direction | speed KPH | gust KPH | rain 1hr cm | rain 24hr cm | rain mn cm | humidity % | barometer mb |
| 20260507060411 | 5 | 231 | 3.2 | 9.7 | 0.00 | 0.89 | 0.00 | 84 | 1006.3 |
| 20260507054911 | 5 | 245 | 3.2 | 9.7 | 0.00 | 0.89 | 0.00 | 84 | 1006.4 |
| 20260507053411 | 5 | 268 | 3.2 | 8.0 | 0.00 | 0.89 | 0.00 | 84 | 1006.6 |
| 20260507051911 | 5 | 220 | 3.2 | 11.3 | 0.00 | 0.89 | 0.00 | 86 | 1006.8 |
| 20260507050412 | 4 | 213 | 1.6 | 6.4 | 0.00 | 0.89 | 0.00 | 86 | 1007.0 |
| 20260507044912 | 4 | 220 | 1.6 | 4.8 | 0.00 | 0.89 | 0.00 | 86 | 1007.2 |
| 20260507043412 | 4 | 207 | 3.2 | 6.4 | 0.00 | 0.89 | 0.00 | 86 | 1007.2 |
| 20260507040412 | 3 | 210 | 0.0 | 3.2 | 0.00 | 0.89 | 0.89 | 86 | 1007.5 |
| 20260507034912 | 3 | 193 | 0.0 | 3.2 | 0.00 | 0.89 | 0.89 | 86 | 1007.5 |
| 20260507033412 | 4 | 187 | 0.0 | 0.0 | 0.00 | 0.89 | 0.89 | 86 | 1007.5 |
| 20260507031912 | 4 | 178 | 0.0 | 0.0 | 0.00 | 0.89 | 0.89 | 86 | 1007.7 |
| 20260507030412 | 4 | 217 | 0.0 | 0.0 | 0.00 | 0.89 | 0.89 | 85 | 1007.9 |
| 20260507024912 | 4 | 217 | 0.0 | 0.0 | 0.00 | 0.89 | 0.89 | 84 | 1008.1 |
| 20260507023412 | 5 | 221 | 0.0 | 0.0 | 0.00 | 0.89 | 0.89 | 85 | 1008.2 |
| 20260507021912 | 5 | 216 | 0.0 | 0.0 | 0.00 | 0.89 | 0.89 | 85 | 1008.3 |
| 20260507020412 | 5 | 248 | 0.0 | 0.0 | 0.00 | 0.89 | 0.89 | 85 | 1008.5 |
| 20260507014912 | 5 | 248 | 0.0 | 0.0 | 0.00 | 0.89 | 0.89 | 84 | 1008.4 |
| 20260507013412 | 5 | 248 | 0.0 | 0.0 | 0.00 | 0.89 | 0.89 | 83 | 1008.5 |
| 20260507011912 | 5 | 248 | 0.0 | 0.0 | 0.00 | 0.89 | 0.89 | 83 | 1008.3 |
| 20260507010412 | 5 | 248 | 0.0 | 0.0 | 0.00 | 0.89 | 0.89 | 83 | 1008.3 |
| 20260507004912 | 5 | 248 | 0.0 | 0.0 | 0.00 | 0.89 | 0.89 | 82 | 1008.2 |
| 20260507003412 | 5 | 248 | 0.0 | 0.0 | 0.00 | 0.89 | 0.89 | 81 | 1008.3 |
| 20260507001912 | 5 | 248 | 0.0 | 0.0 | 0.00 | 0.89 | 0.89 | 81 | 1008.2 |
| 20260507000412 | 5 | 248 | 0.0 | 0.0 | 0.00 | 0.89 | 0.89 | 80 | 1008.2 |
| 20260506234912 | 5 | 248 | 0.0 | 0.0 | 0.00 | 0.89 | 0.89 | 78 | 1008.0 |
| 20260506233412 | 6 | 253 | 0.0 | 0.0 | 0.00 | 0.89 | 0.89 | 77 | 1008.0 |
| 20260506231912 | 6 | 240 | 0.0 | 3.2 | 0.00 | 0.89 | 0.89 | 76 | 1008.0 |
| 20260506230412 | 6 | 248 | 1.6 | 3.2 | 0.00 | 0.89 | 0.89 | 75 | 1008.2 |
| 20260506224912 | 6 | 239 | 0.0 | 1.6 | 0.00 | 0.89 | 0.89 | 75 | 1008.1 |
| 20260506223412 | 6 | 262 | 3.2 | 6.4 | 0.00 | 0.89 | 0.89 | 74 | 1008.0 |
| 20260506221912 | 6 | 264 | 3.2 | 6.4 | 0.00 | 0.89 | 0.89 | 75 | 1008.0 |
| 20260506220412 | 6 | 254 | 3.2 | 6.4 | 0.00 | 0.89 | 0.89 | 74 | 1008.1 |
| 20260506214912 | 6 | 265 | 1.6 | 4.8 | 0.00 | 0.89 | 0.89 | 77 | 1008.2 |
| 20260506213412 | 6 | 279 | 1.6 | 4.8 | 0.00 | 0.89 | 0.89 | 76 | 1008.2 |
| 20260506211912 | 6 | 268 | 1.6 | 6.4 | 0.00 | 0.89 | 0.89 | 75 | 1008.2 |
| 20260506210412 | 6 | 276 | 1.6 | 3.2 | 0.00 | 0.89 | 0.89 | 76 | 1008.3 |
| 20260506204912 | 6 | 242 | 1.6 | 4.8 | 0.00 | 0.89 | 0.89 | 76 | 1008.2 |
| 20260506203412 | 6 | 271 | 1.6 | 4.8 | 0.00 | 0.89 | 0.89 | 77 | 1008.3 |
| 20260506201912 | 6 | 263 | 1.6 | 4.8 | 0.00 | 0.89 | 0.89 | 76 | 1008.4 |
| 20260506200412 | 6 | 218 | 3.2 | 4.8 | 0.00 | 0.89 | 0.89 | 77 | 1008.4 |
| 20260506194912 | 7 | 275 | 3.2 | 8.0 | 0.00 | 0.89 | 0.89 | 77 | 1008.4 |
| 20260506193412 | 7 | 255 | 3.2 | 9.7 | 0.00 | 0.89 | 0.89 | 76 | 1008.7 |
| 20260506191912 | 7 | 240 | 1.6 | 4.8 | 0.00 | 0.89 | 0.89 | 76 | 1008.5 |
| 20260506190412 | 7 | 269 | 1.6 | 8.0 | 0.00 | 0.89 | 0.89 | 77 | 1008.7 |
| 20260506184912 | 7 | 224 | 1.6 | 4.8 | 0.00 | 0.89 | 0.89 | 76 | 1008.6 |
| 20260506183412 | 7 | 223 | 1.6 | 6.4 | 0.00 | 0.89 | 0.89 | 79 | 1008.9 |
| 20260506181912 | 7 | 208 | 1.6 | 4.8 | 0.00 | 0.89 | 0.89 | 80 | 1008.7 |
| 20260506180412 | 6 | 240 | 3.2 | 6.4 | 0.00 | 0.89 | 0.89 | 82 | 1008.8 |
| 20260506174912 | 6 | 222 | 1.6 | 6.4 | 0.00 | 0.89 | 0.89 | 82 | 1008.9 |
| 20260506173412 | 6 | 203 | 1.6 | 8.0 | 0.05 | 0.89 | 0.89 | 83 | 1009.1 |
| 20260506171912 | 5 | 214 | 1.6 | 4.8 | 0.10 | 0.89 | 0.89 | 84 | 1009.3 |
| 20260506170412 | 5 | 162 | 1.6 | 6.4 | 0.13 | 0.89 | 0.89 | 85 | 1009.6 |
| 20260506164912 | 5 | 179 | 1.6 | 4.8 | 0.15 | 0.89 | 0.89 | 85 | 1009.7 |
| 20260506163412 | 5 | 217 | 1.6 | 4.8 | 0.15 | 0.84 | 0.84 | 83 | 1010.0 |
| 20260506161912 | 5 | 198 | 1.6 | 3.2 | 0.15 | 0.81 | 0.79 | 84 | 1010.1 |
| 20260506160412 | 5 | 189 | 1.6 | 4.8 | 0.15 | 0.79 | 0.76 | 83 | 1010.1 |
| 20260506154912 | 5 | 153 | 1.6 | 4.8 | 0.15 | 0.76 | 0.74 | 84 | 1010.2 |
| 20260506153412 | 5 | 169 | 1.6 | 4.8 | 0.13 | 0.71 | 0.69 | 84 | 1010.2 |
| 20260506151912 | 5 | 176 | 1.6 | 3.2 | 0.13 | 0.79 | 0.64 | 83 | 1010.3 |
| 20260506150412 | 5 | 176 | 1.6 | 4.8 | 0.18 | 0.76 | 0.61 | 83 | 1010.3 |
| 20260506144912 | 5 | 231 | 0.0 | 3.2 | 0.18 | 0.74 | 0.58 | 84 | 1010.4 |
| 20260506143412 | 5 | 182 | 1.6 | 4.8 | 0.18 | 0.71 | 0.56 | 82 | 1010.4 |
| 20260506141912 | 5 | 195 | 3.2 | 4.8 | 0.15 | 0.66 | 0.51 | 83 | 1010.4 |
| 20260506140412 | 5 | 249 | 1.6 | 8.0 | 0.13 | 0.58 | 0.43 | 84 | 1010.5 |
| 20260506134912 | 5 | 205 | 1.6 | 4.8 | 0.13 | 0.56 | 0.41 | 84 | 1010.3 |
| 20260506133412 | 5 | 224 | 1.6 | 4.8 | 0.10 | 0.53 | 0.38 | 84 | 1010.1 |
| 20260506131912 | 6 | 263 | 1.6 | 8.0 | 0.10 | 0.51 | 0.36 | 83 | 1010.0 |
| 20260506130412 | 6 | 229 | 1.6 | 4.8 | 0.08 | 0.46 | 0.30 | 82 | 1010.1 |
| 20260506124912 | 6 | 212 | 3.2 | 6.4 | 0.08 | 0.43 | 0.28 | 83 | 1010.0 |
| 20260506123412 | 6 | 229 | 3.2 | 12.9 | 0.10 | 0.43 | 0.28 | 83 | 1010.2 |
| 20260506121912 | 6 | 214 | 1.6 | 8.0 | 0.10 | 0.41 | 0.25 | 82 | 1010.3 |
| 20260506120412 | 6 | 212 | 1.6 | 3.2 | 0.13 | 0.38 | 0.23 | 84 | 1010.1 |
| 20260506114912 | 6 | 207 | 3.2 | 8.0 | 0.13 | 0.36 | 0.20 | 82 | 1010.1 |
| 20260506113412 | 6 | 238 | 1.6 | 11.3 | 0.10 | 0.33 | 0.18 | 81 | 1010.1 |
| 20260506111912 | 6 | 234 | 3.2 | 8.0 | 0.10 | 0.30 | 0.15 | 80 | 1010.3 |
| 20260506110412 | 6 | 258 | 1.6 | 3.2 | 0.10 | 0.25 | 0.10 | 80 | 1010.0 |
| 20260506104912 | 6 | 271 | 1.6 | 3.2 | 0.08 | 0.23 | 0.08 | 79 | 1009.9 |
| 20260506103412 | 6 | 253 | 1.6 | 8.0 | 0.08 | 0.23 | 0.08 | 77 | 1009.7 |
| 20260506101912 | 7 | 262 | 3.2 | 6.4 | 0.05 | 0.20 | 0.05 | 75 | 1009.3 |
| 20260506100412 | 7 | 243 | 4.8 | 11.3 | 0.00 | 0.15 | 0.00 | 74 | 1009.1 |
| 20260506094912 | 7 | 271 | 6.4 | 9.7 | 0.00 | 0.15 | 0.00 | 73 | 1009.1 |
| 20260506093412 | 8 | 261 | 1.6 | 6.4 | 0.00 | 0.15 | 0.00 | 81 | 1008.7 |
| 20260506091912 | 8 | 238 | 3.2 | 8.0 | 0.00 | 0.15 | 0.00 | 80 | 1008.6 |
| 20260506090412 | 8 | 250 | 3.2 | 9.7 | 0.00 | 0.15 | 0.00 | 80 | 1008.5 |
| 20260506084912 | 8 | 274 | 4.8 | 9.7 | 0.00 | 0.15 | 0.00 | 80 | 1008.8 |
| 20260506083412 | 8 | 236 | 3.2 | 11.3 | 0.00 | 0.15 | 0.00 | 79 | 1008.8 |
| 20260506081912 | 8 | 248 | 4.8 | 12.9 | 0.00 | 0.15 | 0.00 | 79 | 1008.8 |
| 20260506080412 | 8 | 250 | 4.8 | 11.3 | 0.00 | 0.15 | 0.00 | 78 | 1008.4 |
| 20260506073413 | 9 | 238 | 6.4 | 14.5 | 0.00 | 0.15 | 0.00 | 77 | 1008.2 |
| 20260506071912 | 9 | 251 | 4.8 | 12.9 | 0.00 | 0.15 | 0.00 | 76 | 1008.2 |
| 20260506070413 | 9 | 243 | 4.8 | 12.9 | 0.00 | 0.15 | 0.00 | 74 | 1008.0 |
| 20260506061913 | 10 | 238 | 4.8 | 11.3 | 0.00 | 0.15 | 0.00 | 73 | 1007.5 |